Location: Bothwell
(42.3833°S, 147.0000°E)
Time: 06:33:33
(UTC+10:00)

AO-109 - Visible Passes

Search period start: 25 September 2022 00:00
Search period end: 05 October 2022 01:00
Orbit: 462 x 508 km, 60.7° (Epoch: 24 September)

Date Brightness Start Highest point End Pass type
(mag) Time Alt. Az. Time Alt. Az. Time Alt. Az.
25 Sep ? 19:04:57 10° S 19:06:50 13° SSE 19:08:44 10° ESE visible
25 Sep ? 20:41:05 10° SW 20:43:12 30° SSW 20:43:12 30° SSW visible
26 Sep ? 18:39:34 10° S 18:41:07 12° SSE 18:42:40 10° SE visible
26 Sep ? 20:15:28 10° SW 20:18:37 51° S 20:18:37 51° S visible
27 Sep ? 19:49:50 10° SSW 19:53:38 53° SE 19:54:06 49° ESE visible
27 Sep ? 21:28:24 10° W 21:28:28 10° W 21:28:28 10° W visible
28 Sep ? 19:24:11 10° SSW 19:27:56 45° SE 19:29:38 27° ENE visible
28 Sep ? 21:02:25 10° WSW 21:04:00 16° W 21:04:00 16° W visible
29 Sep ? 18:58:33 10° SSW 19:02:13 39° SE 19:05:13 14° ENE visible
29 Sep ? 20:36:29 10° WSW 20:39:24 21° WNW 20:39:36 21° WNW visible
30 Sep ? 20:10:35 10° WSW 20:13:44 24° WNW 20:15:16 19° NNW visible
01 Oct ? 19:44:43 10° WSW 19:48:03 28° WNW 19:51:03 11° N visible
02 Oct ? 20:18:51 10° WSW 20:22:21 33° WNW 20:25:46 10° N visible
03 Oct ? 19:52:59 10° SW 19:56:37 40° WNW 20:00:09 10° NNE visible
